Location: Maccacari
(45.1333°N, 11.1333°E)
Time: 02:10:49
(UTC+00:00)

Vanguard 2 - Pass Details

Date: 28 January 2021
Orbit: 552 x 2938 km, 32.9° (Epoch: 05 March)

Event Time Altitude Azimuth Distance (km) Brightness Sun altitude
Rises 17:53:14 0° 248° (WSW) 2,737 11.9 -16.9°
Reaches altitude 10° 17:56:26 10° 218° (SW) 1,959 10.3 -17.5°
Maximum altitude 17:58:28 13° 189° (S) 1,885 9.7 -17.8°
Drops below altitude 10° 18:00:44 10° 162° (SSE) 2,249 9.8 -18.2°
Enters shadow 18:02:59 - 145° (SE) 2,894 10.2 -18.6°
Sets 18:05:02 0° 136° (SE) 3,583 - -19.0°
